Total_Precipitation_Accumulation
1.17 1.19 1.18 1.20 1.26 1.22 1.16 1.15 1.14 1.06 1.03 1.08 1.09 1.15 1.18 1.19 1.20 1.23 1.23 1.27 1.34 1.34 1.33 1.35 1.35 1.36 1.39 1.36 1.35 1.39 1.43 1.48 1.43 1.05 0.85 0.84 0.92 0.95 0.96 0.88 0.81 0.81 0.83
1.06 1.13 1.07 1.08 1.19 1.20 1.12 1.07 1.05 1.01 0.91 0.91 0.95 0.99 0.99 0.99 1.00 1.05 1.08 1.11 1.15 1.20 1.20 1.23 1.23 1.24 1.27 1.29 1.34 1.37 1.39 1.39 1.39 1.23 0.98 0.89 0.88 0.86 0.86 0.84 0.78 0.73 0.70
0.98 1.00 0.97 0.96 1.01 1.04 1.07 1.06 1.01 1.00 0.93 0.84 0.82 0.86 0.87 0.86 0.87 0.88 0.90 0.93 0.98 1.03 1.08 1.11 1.12 1.17 1.22 1.22 1.24 1.24 1.23 1.23 1.25 1.21 1.04 0.88 0.82 0.78 0.80 0.77 0.72 0.68 0.63
0.85 0.84 0.81 0.83 0.84 0.84 0.86 0.88 0.88 0.87 0.84 0.81 0.76 0.73 0.75 0.79 0.82 0.84 0.84 0.84 0.87 0.93 0.99 1.05 1.07 1.09 1.10 1.12 1.16 1.16 1.12 1.12 1.12 1.13 1.06 0.96 0.90 0.85 0.87 0.86 0.82 0.74 0.68
0.80 0.82 0.79 0.76 0.76 0.75 0.74 0.72 0.70 0.72 0.74 0.74 0.72 0.70 0.68 0.70 0.75 0.79 0.81 0.83 0.84 0.88 0.90 0.94 1.02 1.13 1.16 1.12 1.09 1.08 1.08 1.12 1.15 1.19 1.14 1.00 0.87 0.83 0.82 0.77 0.79 0.79 0.77
0.71 0.76 0.75 0.75 0.73 0.71 0.68 0.66 0.64 0.64 0.67 0.71 0.73 0.74 0.75 0.78 0.95 0.93 0.85 0.85 0.89 0.88 0.86 0.84 0.86 0.95 0.98 1.01 1.00 0.98 1.02 1.12 1.22 1.25 1.12 0.93 0.76 0.70 0.69 0.74 0.81 0.87 0.80
0.54 0.60 0.63 0.65 0.67 0.68 0.67 0.69 0.73 0.76 0.77 0.81 0.86 0.89 0.89 0.95 1.06 0.97 0.93 0.84 0.85 0.87 0.85 0.80 0.75 0.74 0.78 0.72 0.79 0.84 0.87 0.96 1.00 0.92 0.85 0.74 0.67 0.66 0.76 0.86 0.83 0.81 0.69
0.57 0.59 0.59 0.62 0.67 0.73 0.79 0.86 0.93 0.99 1.01 1.05 1.08 1.10 1.10 1.09 1.08 0.96 0.94 0.81 0.78 0.75 0.71 0.65 0.61 0.56 0.56 0.61 0.64 0.71 0.69 0.69 0.70 0.65 0.63 0.60 0.59 0.62 0.74 0.88 0.88 0.87 0.73
0.61 0.64 0.67 0.72 0.81 0.88 0.98 1.06 1.09 1.15 1.14 1.11 1.08 1.06 1.03 0.99 0.97 0.86 0.78 0.66 0.65 0.62 0.57 0.54 0.54 0.50 0.58 0.66 0.64 0.65 0.56 0.50 0.56 0.63 0.67 0.67 0.69 0.70 0.71 0.83 0.94 1.03 0.92
0.70 0.76 0.79 0.82 0.88 0.92 0.94 0.96 0.96 0.96 0.92 0.87 0.84 0.81 0.78 0.73 0.73 0.68 0.65 0.56 0.53 0.48 0.46 0.47 0.54 0.53 0.60 0.67 0.61 0.58 0.51 0.44 0.45 0.52 0.57 0.61 0.59 0.62 0.71 0.71 0.86 1.11 1.00
0.81 0.85 0.86 0.83 0.84 0.82 0.75 0.69 0.67 0.65 0.60 0.56 0.54 0.54 0.53 0.51 0.52 0.52 0.55 0.51 0.50 0.48 0.45 0.43 0.46 0.58 0.64 0.67 0.60 0.51 0.53 0.56 0.51 0.52 0.54 0.54 0.55 0.57 0.60 0.60 0.66 1.00 1.23
0.69 0.67 0.64 0.57 0.54 0.52 0.49 0.47 0.46 0.47 0.47 0.45 0.42 0.42 0.40 0.40 0.41 0.43 0.46 0.50 0.51 0.49 0.47 0.44 0.47 0.61 0.62 0.61 0.57 0.56 0.62 0.60 0.51 0.54 0.57 0.55 0.52 0.50 0.50 0.53 0.56 0.62 0.78
0.41 0.39 0.38 0.37 0.37 0.37 0.37 0.37 0.38 0.39 0.41 0.41 0.40 0.41 0.40 0.38 0.41 0.46 0.47 0.51 0.54 0.51 0.48 0.52 0.55 0.58 0.56 0.54 0.57 0.60 0.58 0.52 0.51 0.55 0.55 0.52 0.49 0.50 0.53 0.58 0.61 0.61 0.61
0.29 0.30 0.31 0.33 0.34 0.35 0.36 0.35 0.37 0.39 0.39 0.40 0.40 0.40 0.40 0.40 0.39 0.42 0.46 0.50 0.54 0.55 0.55 0.54 0.51 0.49 0.50 0.51 0.53 0.53 0.52 0.53 0.58 0.60 0.57 0.55 0.55 0.58 0.62 0.63 0.67 0.68 0.72
0.32 0.33 0.34 0.36 0.34 0.34 0.36 0.37 0.39 0.42 0.45 0.47 0.45 0.43 0.44 0.43 0.41 0.49 0.54 0.54 0.56 0.59 0.63 0.57 0.53 0.50 0.48 0.47 0.47 0.48 0.50 0.54 0.60 0.59 0.64 0.67 0.66 0.65 0.63 0.62 0.70 0.77 0.81
0.33 0.33 0.34 0.35 0.34 0.33 0.33 0.35 0.40 0.42 0.45 0.47 0.46 0.45 0.43 0.45 0.49 0.54 0.55 0.56 0.60 0.68 0.72 0.61 0.52 0.48 0.48 0.46 0.48 0.50 0.52 0.55 0.59 0.66 0.71 0.75 0.77 0.76 0.72 0.66 0.69 0.78 0.79
0.35 0.35 0.36 0.36 0.35 0.35 0.34 0.33 0.37 0.42 0.46 0.46 0.45 0.45 0.45 0.48 0.50 0.51 0.54 0.57 0.61 0.69 0.68 0.54 0.45 0.43 0.44 0.47 0.51 0.55 0.56 0.55 0.63 0.74 0.81 0.84 0.88 0.85 0.81 0.77 0.73 0.75 0.73
0.35 0.38 0.38 0.36 0.38 0.40 0.39 0.37 0.36 0.38 0.40 0.40 0.41 0.46 0.47 0.48 0.49 0.50 0.57 0.63 0.61 0.59 0.52 0.47 0.45 0.45 0.48 0.53 0.56 0.60 0.62 0.65 0.70 0.75 0.80 0.87 0.95 0.98 0.91 0.82 0.77 0.80 0.82
0.34 0.37 0.38 0.37 0.39 0.42 0.44 0.45 0.43 0.41 0.41 0.40 0.40 0.44 0.50 0.53 0.54 0.54 0.56 0.55 0.51 0.45 0.42 0.44 0.47 0.52 0.57 0.60 0.62 0.65 0.69 0.73 0.73 0.78 0.81 0.85 0.94 1.06 0.96 0.82 0.82 0.82 0.89
0.35 0.43 0.45 0.44 0.44 0.45 0.46 0.46 0.44 0.43 0.43 0.41 0.40 0.42 0.50 0.60 0.55 0.49 0.47 0.46 0.45 0.43 0.43 0.49 0.53 0.58 0.65 0.70 0.72 0.73 0.74 0.72 0.74 0.80 0.81 0.83 0.89 1.02 1.02 0.92 0.91 0.93 0.88
0.35 0.40 0.46 0.43 0.41 0.43 0.45 0.47 0.47 0.47 0.45 0.42 0.40 0.44 0.59 0.64 0.57 0.49 0.47 0.49 0.51 0.51 0.52 0.56 0.59 0.64 0.70 0.75 0.78 0.77 0.76 0.71 0.71 0.81 0.86 0.86 0.90 0.96 0.92 0.97 0.97 0.99 1.00
0.34 0.36 0.38 0.39 0.41 0.44 0.48 0.48 0.49 0.48 0.46 0.44 0.42 0.45 0.57 0.55 0.47 0.45 0.46 0.47 0.49 0.53 0.57 0.65 0.66 0.64 0.72 0.83 0.91 0.93 0.83 0.71 0.69 0.81 0.89 0.88 0.91 0.95 0.99 1.05 1.04 1.04 1.01
0.35 0.37 0.38 0.38 0.40 0.45 0.49 0.45 0.46 0.47 0.46 0.44 0.44 0.45 0.48 0.48 0.43 0.42 0.43 0.44 0.47 0.50 0.54 0.62 0.67 0.62 0.62 0.75 0.89 1.09 1.12 0.90 0.80 0.95 1.20 1.20 1.11 1.09 1.10 1.08 0.99 0.99 0.91
0.34 0.37 0.38 0.40 0.42 0.45 0.46 0.44 0.44 0.44 0.44 0.44 0.43 0.44 0.44 0.45 0.44 0.42 0.43 0.45 0.47 0.49 0.51 0.58 0.63 0.62 0.64 0.73 0.81 0.88 0.97 1.08 1.34 1.52 1.62 1.66 1.39 1.15 1.09 1.04 0.95 0.92 0.90
0.34 0.37 0.41 0.43 0.45 0.46 0.46 0.44 0.43 0.42 0.43 0.43 0.43 0.43 0.43 0.43 0.43 0.42 0.43 0.45 0.47 0.47 0.47 0.52 0.58 0.61 0.62 0.66 0.72 0.76 0.83 1.05 1.39 1.62 1.60 1.50 1.28 1.09 1.06 1.02 0.94 0.92 0.90
0.39 0.41 0.43 0.45 0.46 0.46 0.46 0.45 0.42 0.42 0.42 0.41 0.41 0.41 0.42 0.42 0.41 0.40 0.41 0.42 0.44 0.43 0.43 0.45 0.49 0.56 0.60 0.61 0.59 0.66 0.83 0.95 1.00 1.06 1.32 1.44 1.27 1.06 1.04 1.09 0.99 0.95 0.92